Indianapolis, IN

9:08 PM EDT on August 20, 2017 (GMT -0400)
Indianapolis International

Weather History for KIND - June, 2012

Change the Weather History Date:

Saturday, June 2, 2012

  Actual Average Record
Temperature  
Mean Temperature 60 °F 68 °F  
Max Temperature 72 °F 78 °F 100 °F (1934)
Min Temperature 48 °F 58 °F 39 °F (1956)
Degree Days  
Heating Degree Days 5 2  
Month to date heating degree days 14 4  
Since 1 June heating degree days 14 4  
Since 1 July heating degree days 4115 5366  
Cooling Degree Days 0 5  
Month to date cooling degree days 0 10  
Year to date cooling degree days 210 94  
Since 1 June cooling degree days 0 10  
Growing Degree Days 10 (Base 50)    
Moisture  
Dew Point 47 °F    
Average Humidity 66    
Maximum Humidity 93    
Minimum Humidity 38    
Precipitation  
Precipitation 0.03 in 0.15 in 3.00 in (1941)
Month to date precipitation 0.03 0.29  
Year to date precipitation 15.09 17.69  
Snow  
Snow 0.00 in 0.00 in 0.00 in ()
Month to date snowfall 0.0 0.0  
Since 1 June snowfall 0.0 0.0  
Since 1 July snowfall 9.8 25.9  
Snow Depth 0.00 in    
Sea Level Pressure  
Sea Level Pressure 29.84 in    
Wind  
Wind Speed 12 mph (SW)    
Max Wind Speed 31 mph    
Max Gust Speed 36 mph    
Visibility 10 miles    
Events      
T = Trace of Precipitation, MM = Missing Value Source: NWS Daily Summary

Daily Weather History Graph

Daily Weather History Graph

Search for Another Location

Airport or City:

Trip Planner

Search our weather history database for the weather conditions in past years. The results will help you decide how hot, cold, wet, or windy it might be!

Date:

Astronomy

Jun. 02, 2012 Rise Set
Actual Time 6:18 AM EDT 9:08 PM EDT
Civil Twilight 5:46 AM EDT 9:40 PM EDT
Nautical Twilight 5:06 AM EDT 10:20 PM EDT
Astronomical Twilight 4:20 AM EDT 11:06 PM EDT
Moon 7:22 PM EDT (6/2) 4:36 AM EDT (6/2)
Length of Visible Light 15h 53m
Length of Day
14h 49m
Waxing Gibbous, 95% of the Moon is Illuminated
Jun 2
Waxing Gibbous
Jun 4
Full
Jun 11
Last Quarter
Jun 19
New
Jun 26
First Quarter

Hourly Weather History & Observations

Time (EDT) Temp. Dew Point Humidity Pressure Visibility Wind Dir Wind Speed Gust Speed Precip Events Conditions
12:54 AM 52.0 °F 46.9 °F 83% 29.83 in 10.0 mi WSW 10.4 mph - N/A   Clear
2:54 AM 50.0 °F 46.0 °F 86% 29.82 in 10.0 mi WSW 9.2 mph - N/A   Clear
3:54 AM 50.0 °F 46.0 °F 86% 29.81 in 10.0 mi WSW 9.2 mph - N/A   Clear
4:54 AM 48.9 °F 46.0 °F 90% 29.82 in 10.0 mi SW 9.2 mph - N/A   Clear
5:54 AM 48.0 °F 45.0 °F 89% 29.84 in 10.0 mi SW 8.1 mph - N/A   Partly Cloudy
6:54 AM 48.9 °F 46.0 °F 90% 29.86 in 10.0 mi SW 10.4 mph - N/A   Scattered Clouds
7:54 AM 52.0 °F 46.0 °F 80% 29.87 in 10.0 mi SW 10.4 mph - N/A   Partly Cloudy
8:54 AM 55.9 °F 46.9 °F 72% 29.88 in 10.0 mi SW 12.7 mph - N/A   Scattered Clouds
9:54 AM 61.0 °F 48.0 °F 62% 29.88 in 10.0 mi WSW 12.7 mph - N/A   Scattered Clouds
10:54 AM 66.0 °F 46.0 °F 48% 29.88 in 10.0 mi WSW 17.3 mph 27.6 mph N/A   Scattered Clouds
11:54 AM 68.0 °F 46.0 °F 45% 29.86 in 10.0 mi West 15.0 mph 25.3 mph N/A   Scattered Clouds
12:54 PM 71.1 °F 45.0 °F 39% 29.86 in 10.0 mi WSW 18.4 mph 33.4 mph N/A   Mostly Cloudy
1:54 PM 66.9 °F 42.1 °F 40% 29.84 in 10.0 mi WSW 18.4 mph 27.6 mph N/A   Mostly Cloudy
2:54 PM 69.1 °F 45.0 °F 42% 29.83 in 10.0 mi WSW 16.1 mph 20.7 mph N/A   Overcast
3:54 PM 66.9 °F 45.0 °F 45% 29.83 in 10.0 mi SW 21.9 mph - N/A   Mostly Cloudy
4:54 PM 64.0 °F 48.0 °F 56% 29.84 in 10.0 mi WSW 15.0 mph - N/A   Overcast
5:54 PM 66.0 °F 50.0 °F 56% 29.83 in 10.0 mi WSW 19.6 mph - N/A   Overcast
6:54 PM 64.9 °F 50.0 °F 58% 29.83 in 10.0 mi SW 15.0 mph - N/A   Mostly Cloudy
7:54 PM 63.0 °F 50.0 °F 63% 29.83 in 10.0 mi SSW 9.2 mph - N/A   Overcast
8:54 PM 62.1 °F 51.1 °F 67% 29.83 in 10.0 mi SSW 6.9 mph - N/A   Overcast
9:54 PM 59.0 °F 53.1 °F 81% 29.84 in 10.0 mi South 5.8 mph - 0.03 in   Scattered Clouds
10:54 PM 57.0 °F 53.1 °F 87% 29.85 in 10.0 mi South 5.8 mph - N/A   Partly Cloudy
11:54 PM 55.0 °F 52.0 °F 89% 29.85 in 10.0 mi SSW 3.5 mph - N/A   Partly Cloudy